Location: Helion Bumpstead
(52.0500°N, 0.4000°E)
Time: 10:42:57
(UTC+00:00)

H-2A R/B - Pass Details

Date: 15 November 2025
Orbit: 728 x 830 km, 98.3° (Epoch: 09 December)

Event Time Altitude Azimuth Distance (km) Brightness Sun altitude
Rises 04:33:43 0° 8° (N) 3,197 5.3 -25.1°
Reaches altitude 10° 04:36:14 10° 359° (N) 2,258 4.4 -24.7°
Enters shadow 04:37:34 17° 349° (N) 1,817 3.8 -24.5°
